Location: Arthez
(43.0833°N, 0.2500°W)
Time: 12:19:36
(UTC+00:00)

Cosmos 304 Rocket - Pass Details

Date: 01 June 2022
Orbit: 679 x 686 km, 74.0° (Epoch: 01 July)

Event Time Altitude Azimuth Distance (km) Brightness Sun altitude
Exits shadow 23:01:28 29° 89° (E) 1,249 4.9 -23.4°
Drops below altitude 10° 23:05:07 10° 41° (NE) 2,141 6.7 -23.6°
Sets 23:07:39 0° 31° (NNE) 3,062 7.8 -23.7°
